NORTHEAST SUFFOLK  -  Frost Advisory Frost Advisory     Special Weather Statement Special Weather Statement        NORTHERN NASSAU  -  Frost Advisory Frost Advisory     Special Weather Statement Special Weather Statement        NORTHWEST SUFFOLK  -  Frost Advisory Frost Advisory     Special Weather Statement Special Weather Statement        SOUTHEAST SUFFOLK  -  Frost Advisory Frost Advisory     Special Weather Statement Special Weather Statement        SOUTHERN NASSAU  -  Frost Advisory Frost Advisory     Special Weather Statement Special Weather Statement        SOUTHWEST SUFFOLK  -  Frost Advisory Frost Advisory     Special Weather Statement Special Weather Statement        NORTHERN QUEENS  -  Special Weather Statement Special Weather Statement        SOUTHERN QUEENS  -  Special Weather Statement Special Weather Statement      

Active alerts

Northern Nassau
  Details for Northern Nassau Frost Advisory  +1 additional alert
Southern Nassau
  Details for Southern Nassau Frost Advisory  +1 additional alert
Northwest Suffolk
  Details for Northwest Suffolk Frost Advisory  +1 additional alert
Southwest Suffolk
  Details for Southwest Suffolk Frost Advisory  +1 additional alert
Northeast Suffolk
  Details for Northeast Suffolk Frost Advisory  +1 additional alert
Southeast Suffolk
  Details for Southeast Suffolk Frost Advisory  +1 additional alert
Northern Queens
  Details for Northern Queens Special Weather Statement
Southern Queens
  Details for Southern Queens Special Weather Statement


WXM80 ListenWXM80 Stop

You find our weather info also at:

UK Metoffice

WeatherCloud

Weather Underground

Northeastern Weather Network

AWEKAS

Citizen Weather Observer Program (CWOP)

HAMweather, WeatherForYou, PWS Weather


Weather Underground History page Text

Daily Summary for January 7, 2017 Units:  Metric    English   Both
« Previous Day
Next Day »
Daily Weekly Monthly Yearly Custom
  High: Low: Average:
Temperature: -3.2 °C -6.1 °C -4.9 °C
Dew Point: -6.1 °C -11.6 °C -8.3 °C
Humidity: 94 % 58 % 78 %
Wind Speed: 24 km/h 4.8 km/h 12.4 km/h
Wind Gust: 46.7 km/h - -
Wind:- - ESE
Pressure: 1026.3 hPa 1017.2 hPa -
Precipitation: 6.1 mm    
Historical Graphs
 
 
Tabular Data for January 7, 2017
Time Temperature Dew Point Pressure Wind Wind Speed Wind Gust Humidity Rainfall Rate (Hourly)
00:03 -3.2 °C -10.1 °C 1024.3 hPa NNE 11.4 km/h 46.7 km/h 59 % 0 mm
00:08 -3.2 °C -10.1 °C 1024.6 hPa NNE 12.1 km/h 46.7 km/h 59 % 0 mm
00:13 -3.3 °C -10.2 °C 1024.6 hPa NNW 9 km/h 46.7 km/h 59 % 0 mm
00:18 -3.3 °C -10.2 °C 1024.6 hPa NE 9.5 km/h 46.7 km/h 59 % 0 mm
00:23 -3.4 °C -10.3 °C 1024.9 hPa NNE 10.6 km/h 46.7 km/h 59 % 0 mm
00:28 -3.4 °C -10.3 °C 1024.9 hPa North 8.2 km/h 46.7 km/h 59 % 0 mm
00:33 -3.5 °C -10.2 °C 1024.9 hPa NNE 10.8 km/h 46.7 km/h 60 % 0 mm
00:38 -3.6 °C -10.2 °C 1024.9 hPa North 9.5 km/h 46.7 km/h 60 % 0 mm
00:43 -3.6 °C -10.4 °C 1024.9 hPa North 9.8 km/h 46.7 km/h 59 % 0 mm
00:48 -3.7 °C -10.3 °C 1024.6 hPa North 8.9 km/h 46.7 km/h 60 % 0 mm
00:53 -3.7 °C -10.3 °C 1024.6 hPa NNE 11.6 km/h 46.7 km/h 60 % 0 mm
00:58 -3.7 °C -10.4 °C 1024.6 hPa NNW 7.9 km/h 46.7 km/h 60 % 0 mm
01:03 -3.8 °C -10.4 °C 1024.6 hPa NNE 11.4 km/h 46.7 km/h 60 % 0 mm
01:08 -3.8 °C -10.7 °C 1024.6 hPa NNE 13.7 km/h 46.7 km/h 59 % 0 mm
01:13 -3.9 °C -10.7 °C 1024.9 hPa NNE 9 km/h 46.7 km/h 59 % 0 mm
01:18 -3.9 °C -11 °C 1024.6 hPa NNE 14.2 km/h 46.7 km/h 58 % 0 mm
01:24 -3.9 °C -10.8 °C 1024.9 hPa NNE 10.5 km/h 46.7 km/h 59 % 0 mm
01:29 -3.9 °C -10.4 °C 1024.6 hPa NNW 14.6 km/h 46.7 km/h 61 % 0 mm
01:34 -4 °C -10.6 °C 1024.6 hPa NE 10.5 km/h 46.7 km/h 60 % 0 mm
01:39 -4.1 °C -10.7 °C 1024.6 hPa NNE 12.2 km/h 46.7 km/h 60 % 0 mm
01:44 -4.1 °C -10.7 °C 1024.9 hPa NNE 10.6 km/h 46.7 km/h 60 % 0 mm
01:49 -4.1 °C -10.7 °C 1024.9 hPa NNE 10.5 km/h 46.7 km/h 60 % 0 mm
01:54 -4.1 °C -10.7 °C 1024.9 hPa NE 10.5 km/h 46.7 km/h 60 % 0 mm
01:59 -4.1 °C -10.5 °C 1024.9 hPa NNE 15.6 km/h 46.7 km/h 61 % 0 mm
02:04 -4.1 °C -10.8 °C 1025.3 hPa NNE 12.9 km/h 24.1 km/h 60 % 0 mm
02:09 -4.2 °C -10.8 °C 1025.3 hPa NNE 11.3 km/h 19.3 km/h 60 % 0 mm
02:14 -4.2 °C -10.8 °C 1025.3 hPa NNE 12.9 km/h 20.9 km/h 60 % 0 mm
02:19 -4.2 °C -11 °C 1025.6 hPa NNE 8 km/h 19.3 km/h 59 % 0 mm
02:24 -4.2 °C -10.6 °C 1025.6 hPa North 12.9 km/h 19.3 km/h 61 % 0 mm
02:29 -4.2 °C -10.8 °C 1025.6 hPa NNE 14.5 km/h 24.1 km/h 60 % 0 mm
02:34 -4.2 °C -11.1 °C 1026 hPa NNE 11.3 km/h 20.9 km/h 59 % 0 mm
02:39 -4.2 °C -10.8 °C 1026 hPa NNE 11.3 km/h 19.3 km/h 60 % 0 mm
02:44 -4.2 °C -10.8 °C 1026 hPa NNE 9.7 km/h 14.5 km/h 60 % 0 mm
02:49 -4.2 °C -10.8 °C 1025.6 hPa NNE 12.9 km/h 20.9 km/h 60 % 0 mm
02:50 -4.2 °C -10.8 °C 1025.6 hPa NNE 10.5 km/h 46.7 km/h 60 % 0 mm
02:55 -4.3 °C -11.1 °C 1026 hPa NNE 9 km/h 46.7 km/h 59 % 0 mm
03:00 -4.3 °C -10.9 °C 1026 hPa NNE 9.2 km/h 46.7 km/h 60 % 0 mm
03:05 -4.3 °C -11.1 °C 1026 hPa North 7.7 km/h 46.7 km/h 59 % 0 mm
03:10 -4.3 °C -11.3 °C 1026 hPa NNE 8.4 km/h 46.7 km/h 58 % 0 mm
03:15 -4.3 °C -10.9 °C 1026 hPa NNE 9.5 km/h 46.7 km/h 60 % 0 mm
03:20 -4.3 °C -10.9 °C 1026 hPa NNE 5.1 km/h 46.7 km/h 60 % 0 mm
03:25 -4.3 °C -10.9 °C 1025.6 hPa NNE 12.2 km/h 46.7 km/h 60 % 0 mm
03:30 -4.3 °C -11.2 °C 1026 hPa NE 9 km/h 46.7 km/h 59 % 0 mm
03:35 -4.3 °C -11.4 °C 1026 hPa NNW 9.2 km/h 46.7 km/h 58 % 0 mm
03:41 -4.4 °C -11.2 °C 1026 hPa NE 14.2 km/h 46.7 km/h 59 % 0 mm
03:46 -4.4 °C -11.2 °C 1026 hPa NE 7.1 km/h 46.7 km/h 59 % 0 mm
03:51 -4.4 °C -11.2 °C 1026 hPa ENE 5.1 km/h 46.7 km/h 59 % 0 mm
03:56 -4.4 °C -11.1 °C 1026 hPa NNE 7.9 km/h 46.7 km/h 60 % 0 mm
04:01 -4.4 °C -11.3 °C 1026 hPa NNE 8.4 km/h 46.7 km/h 59 % 0 mm
04:06 -4.5 °C -11.3 °C 1026 hPa NNE 13.7 km/h 46.7 km/h 59 % 0 mm
04:11 -4.5 °C -11.5 °C 1025.6 hPa North 12.7 km/h 46.7 km/h 58 % 0 mm
04:16 -4.6 °C -11.4 °C 1025.6 hPa NNE 9.8 km/h 46.7 km/h 59 % 0 mm
04:21 -4.6 °C -11.6 °C 1026 hPa NNE 10.3 km/h 46.7 km/h 58 % 0 mm
04:26 -4.6 °C -11.4 °C 1026 hPa NNE 9 km/h 46.7 km/h 59 % 0 mm
04:31 -4.6 °C -11.2 °C 1026 hPa NNE 14 km/h 46.7 km/h 60 % 0 mm
04:36 -4.5 °C -10.7 °C 1026.3 hPa North 8.5 km/h 46.7 km/h 62 % 0 mm
04:41 -4.5 °C -10.9 °C 1026.3 hPa North 8.5 km/h 46.7 km/h 61 % 0 mm
04:47 -4.5 °C -11.1 °C 1026.3 hPa NNW 11.4 km/h 46.7 km/h 60 % 0 mm
04:52 -4.4 °C -11.1 °C 1026 hPa NNE 10.3 km/h 46.7 km/h 60 % 0 mm
04:57 -4.4 °C -11.1 °C 1026.3 hPa NNE 7.9 km/h 46.7 km/h 60 % 0 mm
05:02 -4.5 °C -11.1 °C 1026 hPa NE 10.3 km/h 46.7 km/h 60 % 0 mm
05:07 -4.5 °C -10.7 °C 1026 hPa NNE 11.1 km/h 46.7 km/h 62 % 0 mm
05:12 -4.5 °C -10.9 °C 1026 hPa NE 10.9 km/h 46.7 km/h 61 % 0 mm
05:17 -4.5 °C -10.9 °C 1026 hPa NNE 10.1 km/h 46.7 km/h 61 % 0 mm
05:22 -4.5 °C -10.9 °C 1026 hPa NNE 8 km/h 46.7 km/h 61 % 0 mm
05:27 -4.5 °C -11.1 °C 1026 hPa NNE 9 km/h 46.7 km/h 60 % 0 mm
05:32 -4.5 °C -10.9 °C 1026 hPa North 10.8 km/h 46.7 km/h 61 % 0 mm
05:37 -4.5 °C -10.9 °C 1026 hPa NE 10.6 km/h 46.7 km/h 61 % 0 mm
05:42 -4.5 °C -10.9 °C 1025.6 hPa NNE 11.3 km/h 46.7 km/h 61 % 0 mm
05:47 -4.5 °C -10.7 °C 1025.6 hPa NNE 14 km/h 46.7 km/h 62 % 0 mm
05:52 -4.6 °C -10.9 °C 1025.6 hPa NNE 6.8 km/h 46.7 km/h 61 % 0 mm
05:57 -4.6 °C -10.7 °C 1025.6 hPa NNE 12.9 km/h 46.7 km/h 62 % 0 mm
06:02 -4.6 °C -10.6 °C 1025.6 hPa NNE 12.9 km/h 46.7 km/h 63 % 0 mm
06:07 -4.6 °C -10.6 °C 1025.3 hPa NNE 14.5 km/h 46.7 km/h 63 % 0 mm
06:12 -4.6 °C -10.7 °C 1025.3 hPa NNE 9.2 km/h 46.7 km/h 62 % 0 mm
06:18 -4.6 °C -10.7 °C 1024.9 hPa NNE 9.8 km/h 46.7 km/h 62 % 0 mm
06:23 -4.6 °C -10.6 °C 1024.9 hPa NNE 12.1 km/h 46.7 km/h 63 % 0 mm
06:28 -4.6 °C -10.6 °C 1024.6 hPa NNE 9.7 km/h 46.7 km/h 63 % 0 mm
06:33 -4.6 °C -10.3 °C 1024.6 hPa NNE 12.1 km/h 46.7 km/h 64 % 0 mm
06:38 -4.6 °C -10.3 °C 1024.6 hPa NNE 10.6 km/h 46.7 km/h 64 % 0 mm
06:43 -4.6 °C -10.2 °C 1024.6 hPa NNE 10.8 km/h 46.7 km/h 65 % 0 mm
06:48 -4.6 °C -10.2 °C 1024.3 hPa NNE 9.5 km/h 46.7 km/h 65 % 0 mm
06:53 -4.5 °C -9.9 °C 1024.9 hPa NE 13.7 km/h 46.7 km/h 66 % 0 mm
07:03 -4.5 °C -10.1 °C 1024.6 hPa NNE 10.5 km/h 46.7 km/h 65 % 0 mm
07:08 -4.6 °C -10.2 °C 1024.3 hPa NE 11.4 km/h 46.7 km/h 65 % 0 mm
07:13 -4.5 °C -10.1 °C 1024.3 hPa NNE 14.5 km/h 46.7 km/h 65 % 0 mm
07:18 -4.5 °C -10.1 °C 1024.6 hPa NE 8.7 km/h 46.7 km/h 65 % 0 mm
07:24 -4.5 °C -9.9 °C 1024.9 hPa NNE 8.9 km/h 46.7 km/h 66 % 0 mm
07:29 -4.5 °C -9.9 °C 1024.9 hPa NE 12.1 km/h 46.7 km/h 66 % 0 mm
07:34 -4.5 °C -9.9 °C 1024.6 hPa NE 13 km/h 46.7 km/h 66 % 0 mm
07:39 -4.5 °C -9.9 °C 1024.6 hPa NNE 11.7 km/h 46.7 km/h 66 % 0 mm
07:44 -4.4 °C -9.8 °C 1025.3 hPa NNE 14 km/h 46.7 km/h 66 % 0 mm
07:49 -4.4 °C -9.8 °C 1025.3 hPa NNE 12.9 km/h 46.7 km/h 66 % 0 mm
07:54 -4.4 °C -10.1 °C 1025.6 hPa NNE 6.1 km/h 46.7 km/h 65 % 0 mm
08:04 -4.4 °C -10 °C 1024.9 hPa NNE 8 km/h 22.5 km/h 65 % 0 mm
08:09 -4.4 °C -10 °C 1024.9 hPa NNE 4.8 km/h 19.3 km/h 65 % 0 mm
08:14 -4.3 °C -9.9 °C 1024.9 hPa NNW 9 km/h 46.7 km/h 65 % 0 mm
08:19 -4.3 °C -9.9 °C 1024.9 hPa NNE 11.3 km/h 19.3 km/h 65 % 0 mm
08:24 -4.3 °C -9.7 °C 1024.6 hPa NNE 9.7 km/h 20.9 km/h 66 % 0 mm
08:29 -4.3 °C -9.7 °C 1025.3 hPa NNE 8 km/h 14.5 km/h 66 % 0 mm
08:34 -4.2 °C -9.8 °C 1024.9 hPa NE 6.8 km/h 46.7 km/h 65 % 0 mm
08:39 -4.2 °C -9.8 °C 1024.9 hPa NE 11.3 km/h 19.3 km/h 65 % 0 mm
08:44 -4.1 °C -9.6 °C 1024.9 hPa NE 11.3 km/h 20.9 km/h 66 % 0 mm
08:49 -4.1 °C -9.5 °C 1024.9 hPa NNE 7.4 km/h 46.7 km/h 66 % 0 mm
08:54 -4.1 °C -9.5 °C 1024.9 hPa NE 9.7 km/h 19.3 km/h 66 % 0 mm
08:59 -4.1 °C -9.5 °C 1025.6 hPa East 10.8 km/h 46.7 km/h 66 % 0 mm
09:04 -4 °C -9.6 °C 1025.6 hPa NE 11.7 km/h 46.7 km/h 65 % 0 mm
09:09 -4.1 °C -9.7 °C 1024.9 hPa ENE 13 km/h 46.7 km/h 65 % 0 mm
09:14 -4.1 °C -9.5 °C 1024.9 hPa ENE 8 km/h 46.7 km/h 66 % 0 mm
09:19 -4.1 °C -9.5 °C 1024.3 hPa NNE 8.9 km/h 46.7 km/h 66 % 0 mm
09:24 -4.1 °C -9.3 °C 1024.3 hPa ENE 12.7 km/h 46.7 km/h 67 % 0 mm
09:29 -4.1 °C -9.1 °C 1024.6 hPa ENE 11.4 km/h 46.7 km/h 68 % 0 mm
09:34 -4.1 °C -8.9 °C 1024.3 hPa NNE 8.5 km/h 46.7 km/h 69 % 0 mm
09:39 -4.1 °C -9.2 °C 1024.6 hPa NE 10.3 km/h 46.7 km/h 68 % 0 mm
09:45 -4.1 °C -8.9 °C 1024.3 hPa NNE 13.8 km/h 46.7 km/h 69 % 0 mm
09:50 -4.1 °C -8.7 °C 1024.3 hPa NNE 7.9 km/h 46.7 km/h 70 % 0 mm
09:55 -4.1 °C -8.6 °C 1024.3 hPa ENE 10.6 km/h 46.7 km/h 71 % 0 mm
10:00 -4.2 °C -8.4 °C 1024.3 hPa NE 7.1 km/h 46.7 km/h 72 % 0 mm
10:05 -4.2 °C -8.2 °C 1024.3 hPa NE 14.6 km/h 46.7 km/h 74 % 0 mm
10:10 -4.2 °C -8 °C 1024.6 hPa NE 10 km/h 46.7 km/h 75 % 0 mm
10:15 -4.3 °C -7.9 °C 1024.6 hPa NE 9.8 km/h 46.7 km/h 76 % 0 mm
10:20 -4.3 °C -7.8 °C 1024.6 hPa ENE 9 km/h 46.7 km/h 77 % 0 mm
10:25 -4.3 °C -7.6 °C 1024.6 hPa NNE 12.9 km/h 46.7 km/h 78 % 0 mm
10:30 -4.3 °C -7.4 °C 1024.3 hPa North 9.3 km/h 46.7 km/h 79 % 0 mm
10:35 -4.3 °C -7.3 °C 1024.3 hPa North 10.9 km/h 46.7 km/h 80 % 0 mm
10:40 -4.4 °C -7.2 °C 1024.3 hPa North 10.6 km/h 46.7 km/h 81 % 0 mm
10:45 -4.4 °C -7.1 °C 1024.3 hPa NE 12.2 km/h 46.7 km/h 82 % 0 mm
10:51 -4.5 °C -6.9 °C 1023.9 hPa NNE 15.4 km/h 46.7 km/h 83 % 0 mm
10:56 -4.6 °C -6.8 °C 1023.6 hPa NE 12.6 km/h 46.7 km/h 84 % 0 mm
11:01 -4.7 °C -6.8 °C 1023.2 hPa North 11.7 km/h 46.7 km/h 85 % 0 mm
11:06 -4.7 °C -6.8 °C 1022.6 hPa NNW 13 km/h 46.7 km/h 85 % 0 mm
11:11 -4.8 °C -6.9 °C 1023.2 hPa North 13.5 km/h 46.7 km/h 85 % 0 mm
11:16 -4.8 °C -6.8 °C 1023.2 hPa NNE 16.7 km/h 46.7 km/h 86 % 0 mm
11:21 -4.9 °C -6.9 °C 1023.2 hPa NE 10.6 km/h 46.7 km/h 86 % 0 mm
11:26 -4.9 °C -6.8 °C 1023.2 hPa NNE 11.6 km/h 46.7 km/h 87 % 0 mm
11:31 -5 °C -6.8 °C 1022.9 hPa NNE 12.9 km/h 46.7 km/h 87 % 0 mm
11:36 -5.1 °C -6.9 °C 1022.6 hPa NNE 13.7 km/h 46.7 km/h 87 % 0 mm
11:41 -5.1 °C -6.9 °C 1022.2 hPa NNE 12.2 km/h 46.7 km/h 87 % 0 mm
11:46 -5.2 °C -6.8 °C 1022.6 hPa North 13.5 km/h 46.7 km/h 88 % 0 mm
11:51 -5.2 °C -6.8 °C 1022.2 hPa NE 12.9 km/h 46.7 km/h 88 % 0 mm
11:56 -5.2 °C -6.7 °C 1021.9 hPa NNE 17.9 km/h 46.7 km/h 89 % 0 mm
12:02 -5.2 °C -6.8 °C 1021.6 hPa NNE 14.6 km/h 46.7 km/h 89 % 0 mm
12:07 -5.2 °C -6.8 °C 1021.6 hPa North 15.6 km/h 46.7 km/h 89 % 0.25 mm
12:12 -5.2 °C -6.8 °C 1021.9 hPa NE 15.6 km/h 46.7 km/h 89 % 0.25 mm
12:17 -5.2 °C -6.8 °C 1021.6 hPa NNE 13.4 km/h 46.7 km/h 89 % 0.25 mm
12:22 -5.2 °C -6.6 °C 1021.2 hPa NNE 15.3 km/h 46.7 km/h 90 % 0.25 mm
12:27 -5.2 °C -6.6 °C 1020.5 hPa NNE 18.5 km/h 46.7 km/h 90 % 0.25 mm
12:32 -5.2 °C -6.6 °C 1021.2 hPa NE 17.5 km/h 46.7 km/h 90 % 0.25 mm
12:37 -5.2 °C -6.6 °C 1021.2 hPa NE 14 km/h 46.7 km/h 90 % 0.25 mm
12:42 -5.3 °C -6.5 °C 1020.9 hPa NNE 16.4 km/h 46.7 km/h 91 % 0.51 mm
12:47 -5.3 °C -6.5 °C 1020.5 hPa NNE 13.8 km/h 46.7 km/h 91 % 0.51 mm
12:52 -5.3 °C -6.5 °C 1020.5 hPa NNE 14.8 km/h 46.7 km/h 91 % 0.51 mm
12:57 -5.3 °C -6.5 °C 1019.9 hPa NE 20.6 km/h 46.7 km/h 91 % 0.51 mm
13:02 -5.3 °C -6.5 °C 1019.9 hPa NE 19.5 km/h 46.7 km/h 91 % 0.51 mm
13:07 -5.3 °C -6.6 °C 1020.2 hPa NNE 10.9 km/h 46.7 km/h 91 % 0.51 mm
13:13 -5.3 °C -6.5 °C 1020.9 hPa NE 10.8 km/h 46.7 km/h 91 % 0.51 mm
13:18 -5.3 °C -6.4 °C 1020.2 hPa NE 17.7 km/h 46.7 km/h 92 % 0.51 mm
13:23 -5.4 °C -6.5 °C 1020.2 hPa North 11.6 km/h 46.7 km/h 92 % 0.51 mm
13:28 -5.4 °C -6.6 °C 1020.2 hPa North 16.7 km/h 46.7 km/h 92 % 0.76 mm
13:33 -5.4 °C -6.6 °C 1019.5 hPa NE 18.7 km/h 46.7 km/h 92 % 0.76 mm
13:38 -5.4 °C -6.6 °C 1020.2 hPa North 14.2 km/h 46.7 km/h 92 % 0.76 mm
13:43 -5.4 °C -6.3 °C 1020.5 hPa NNW 14.3 km/h 46.7 km/h 93 % 0.76 mm
13:48 -5.4 °C -6.3 °C 1020.5 hPa NW 13.7 km/h 46.7 km/h 93 % 0.76 mm
13:53 -5.4 °C -6.4 °C 1019.9 hPa North 24 km/h 46.7 km/h 93 % 1.02 mm
14:03 -5.5 °C -6.4 °C 1019.5 hPa North 16.6 km/h 46.7 km/h 93 % 1.02 mm
14:08 -5.4 °C -6.4 °C 1019.5 hPa NNE 11.7 km/h 46.7 km/h 93 % 0.76 mm
14:14 -5.4 °C -6.4 °C 1019.5 hPa NE 17.9 km/h 46.7 km/h 93 % 1.02 mm
14:24 -5.4 °C -6.4 °C 1019.9 hPa NNE 17.9 km/h 46.7 km/h 93 % 1.02 mm
14:29 -5.4 °C -6.4 °C 1019.9 hPa North 12.4 km/h 46.7 km/h 93 % 1.02 mm
14:34 -5.4 °C -6.3 °C 1019.5 hPa NE 15.9 km/h 46.7 km/h 93 % 1.02 mm
14:39 -5.4 °C -6.3 °C 1019.5 hPa NNW 13.7 km/h 46.7 km/h 93 % 1.27 mm
14:44 -5.4 °C -6.3 °C 1019.5 hPa NNE 17.5 km/h 46.7 km/h 93 % 1.02 mm
14:49 -5.4 °C -6.3 °C 1019.9 hPa North 14.6 km/h 46.7 km/h 93 % 1.27 mm
14:54 -5.4 °C -6.3 °C 1019.2 hPa NNE 19.3 km/h 46.7 km/h 93 % 1.02 mm
14:59 -5.4 °C -6.3 °C 1019.9 hPa NNE 13.5 km/h 46.7 km/h 93 % 1.02 mm
15:04 -5.4 °C -6.3 °C 1020.2 hPa North 16.1 km/h 27.4 km/h 93 % 0 mm
15:09 -5.4 °C -6.4 °C 1019.9 hPa NNE 19.3 km/h 25.7 km/h 93 % 0 mm
15:14 -5.4 °C -6.4 °C 1019.2 hPa NNE 19.3 km/h 29 km/h 93 % 0 mm
15:19 -5.4 °C -6.3 °C 1018.8 hPa NNE 14.5 km/h 32.2 km/h 93 % 0 mm
15:24 -5.4 °C -6.3 °C 1019.5 hPa NNE 12.9 km/h 24.1 km/h 93 % 0 mm
15:29 -5.3 °C -6.3 °C 1019.2 hPa NNE 12.9 km/h 29 km/h 93 % 0 mm
15:34 -5.3 °C -6.3 °C 1018.8 hPa NNE 19.3 km/h 32.2 km/h 93 % 0 mm
15:39 -5.3 °C -6.3 °C 1018.5 hPa North 19.3 km/h 32.2 km/h 93 % 0.25 mm
15:44 -5.3 °C -6.3 °C 1018.8 hPa North 19.3 km/h 32.2 km/h 93 % 0 mm
15:49 -5.4 °C -6.3 °C 1019.2 hPa NNE 11.6 km/h 46.7 km/h 93 % 1.02 mm
15:54 -5.3 °C -6.3 °C 1019.2 hPa North 14.5 km/h 25.7 km/h 93 % 0 mm
15:59 -5.3 °C -6.3 °C 1018.5 hPa North 12.4 km/h 46.7 km/h 93 % 1.27 mm
16:04 -5.3 °C -6.3 °C 1018.5 hPa NNE 8.7 km/h 46.7 km/h 93 % 1.27 mm
16:09 -5.3 °C -6.3 °C 1017.8 hPa NNE 12.9 km/h 33.8 km/h 93 % 0 mm
16:14 -5.3 °C -6.2 °C 1017.8 hPa North 12.9 km/h 32.2 km/h 93 % 0 mm
16:19 -5.3 °C -6.2 °C 1018.2 hPa NNW 14.5 km/h 46.7 km/h 93 % 1.27 mm
16:24 -5.3 °C -6.3 °C 1018.5 hPa North 12.9 km/h 32.2 km/h 93 % 0 mm
16:29 -5.3 °C -6.3 °C 1018.2 hPa North 11.3 km/h 29 km/h 93 % 0 mm
16:34 -5.3 °C -6.3 °C 1018.5 hPa NNW 13.2 km/h 46.7 km/h 93 % 1.27 mm
16:39 -5.3 °C -6.3 °C 1018.2 hPa North 14.5 km/h 29 km/h 93 % 0 mm
16:44 -5.3 °C -6.3 °C 1018.2 hPa North 11.3 km/h 24.1 km/h 93 % 0 mm
16:49 -5.3 °C -6.3 °C 1017.5 hPa North 12.9 km/h 29 km/h 93 % 0 mm
16:54 -5.3 °C -6.3 °C 1018.2 hPa North 22.5 km/h 32.2 km/h 93 % 0 mm
16:59 -5.3 °C -6.3 °C 1017.8 hPa NNE 13.4 km/h 46.7 km/h 93 % 1.27 mm
17:04 -5.3 °C -6.3 °C 1018.2 hPa NNE 21.7 km/h 46.7 km/h 93 % 1.02 mm
17:09 -5.3 °C -6.2 °C 1018.5 hPa NNE 14.2 km/h 46.7 km/h 93 % 1.02 mm
17:14 -5.3 °C -6.2 °C 1018.2 hPa NNE 10.6 km/h 46.7 km/h 93 % 0.76 mm
17:19 -5.3 °C -6.2 °C 1018.2 hPa NNW 10.3 km/h 46.7 km/h 93 % 0.76 mm
17:24 -5.3 °C -6.2 °C 1018.5 hPa North 17.5 km/h 46.7 km/h 93 % 0.51 mm
17:30 -5.2 °C -6.1 °C 1018.5 hPa NNW 14.5 km/h 46.7 km/h 94 % 0.76 mm
17:35 -5.2 °C -6.2 °C 1018.5 hPa NNW 18 km/h 46.7 km/h 93 % 0.76 mm
17:40 -5.3 °C -6.2 °C 1018.5 hPa NNE 14.8 km/h 46.7 km/h 93 % 0.51 mm
17:45 -5.2 °C -6.2 °C 1018.5 hPa NNE 13.4 km/h 46.7 km/h 93 % 0.51 mm
17:50 -5.3 °C -6.1 °C 1018.5 hPa NNE 9.2 km/h 46.7 km/h 94 % 0.51 mm
17:55 -5.2 °C -6.1 °C 1018.8 hPa North 15.1 km/h 46.7 km/h 94 % 0.76 mm
18:00 -5.2 °C -6.1 °C 1018.2 hPa NNE 21.2 km/h 46.7 km/h 94 % 0.51 mm
18:05 -5.3 °C -6.2 °C 1018.5 hPa North 23 km/h 46.7 km/h 93 % 0.51 mm
18:10 -5.3 °C -6.2 °C 1018.5 hPa NNE 13 km/h 46.7 km/h 93 % 0.51 mm
18:15 -5.2 °C -6.2 °C 1018.5 hPa NNE 19.3 km/h 46.7 km/h 93 % 0.51 mm
18:20 -5.2 °C -6.2 °C 1018.2 hPa NNW 8 km/h 46.7 km/h 93 % 0.51 mm
18:25 -5.2 °C -6.2 °C 1018.2 hPa NNW 17.2 km/h 46.7 km/h 93 % 0.51 mm
18:30 -5.2 °C -6.2 °C 1017.2 hPa NNE 19 km/h 46.7 km/h 93 % 0.25 mm
18:35 -5.2 °C -6.2 °C 1017.8 hPa NE 7.6 km/h 46.7 km/h 93 % 0.51 mm
18:40 -5.2 °C -6.2 °C 1017.8 hPa North 16.3 km/h 46.7 km/h 93 % 0.51 mm
18:45 -5.2 °C -6.2 °C 1017.8 hPa NNW 12.7 km/h 46.7 km/h 93 % 0.51 mm
18:50 -5.2 °C -6.2 °C 1018.2 hPa NNW 17.9 km/h 46.7 km/h 93 % 0.51 mm
18:56 -5.2 °C -6.2 °C 1018.2 hPa NNE 19.8 km/h 46.7 km/h 93 % 0.25 mm
19:01 -5.3 °C -6.2 °C 1017.8 hPa NNW 11.4 km/h 46.7 km/h 93 % 0.25 mm
19:06 -5.3 °C -6.2 °C 1017.8 hPa North 9.7 km/h 46.7 km/h 93 % 0.25 mm
19:11 -5.2 °C -6.2 °C 1017.8 hPa NNE 14.5 km/h 46.7 km/h 93 % 0.25 mm
19:16 -5.2 °C -6.2 °C 1018.2 hPa NNE 15.6 km/h 46.7 km/h 93 % 0.25 mm
19:21 -5.3 °C -6.2 °C 1018.2 hPa NE 12.1 km/h 46.7 km/h 93 % 0.25 mm
19:26 -5.3 °C -6.3 °C 1017.8 hPa NNW 16.4 km/h 46.7 km/h 93 % 0.51 mm
19:31 -5.4 °C -6.3 °C 1017.8 hPa NNE 15.1 km/h 46.7 km/h 93 % 0.51 mm
19:36 -5.4 °C -6.3 °C 1017.8 hPa North 18.3 km/h 46.7 km/h 93 % 0.25 mm
19:41 -5.4 °C -6.3 °C 1017.8 hPa North 14 km/h 46.7 km/h 93 % 0.25 mm
19:46 -5.4 °C -6.4 °C 1017.8 hPa NNW 12.7 km/h 46.7 km/h 93 % 0.25 mm
19:51 -5.4 °C -6.3 °C 1017.8 hPa North 11.9 km/h 46.7 km/h 93 % 0.25 mm
19:56 -5.4 °C -6.4 °C 1018.2 hPa NNE 9.3 km/h 46.7 km/h 93 % 0.25 mm
20:02 -5.4 °C -6.4 °C 1018.2 hPa NNW 16.4 km/h 46.7 km/h 93 % 0.25 mm
20:07 -5.4 °C -6.6 °C 1018.2 hPa NNE 17.5 km/h 46.7 km/h 92 % 0.25 mm
20:12 -5.4 °C -6.6 °C 1018.2 hPa NW 13.7 km/h 46.7 km/h 92 % 0.25 mm
20:17 -5.4 °C -6.6 °C 1018.5 hPa NNE 17.7 km/h 46.7 km/h 92 % 0.25 mm
20:22 -5.4 °C -6.6 °C 1018.2 hPa North 12.6 km/h 46.7 km/h 92 % 0.25 mm
20:27 -5.4 °C -6.6 °C 1018.2 hPa North 17.9 km/h 46.7 km/h 92 % 0 mm
20:32 -5.4 °C -6.6 °C 1018.2 hPa NNW 12.2 km/h 46.7 km/h 92 % 0 mm
20:37 -5.4 °C -6.6 °C 1018.2 hPa NNW 14.6 km/h 46.7 km/h 92 % 0 mm
20:42 -5.4 °C -6.6 °C 1018.2 hPa NNE 15.1 km/h 46.7 km/h 92 % 0 mm
20:47 -5.5 °C -6.7 °C 1018.5 hPa North 14.2 km/h 46.7 km/h 91 % 0 mm
20:52 -5.5 °C -6.7 °C 1018.2 hPa NE 14.6 km/h 46.7 km/h 91 % 0 mm
20:57 -5.5 °C -6.7 °C 1018.2 hPa North 14 km/h 46.7 km/h 91 % 0 mm
21:02 -5.5 °C -6.7 °C 1018.2 hPa North 16.9 km/h 46.7 km/h 91 % 0 mm
21:07 -5.5 °C -6.7 °C 1018.2 hPa NNE 12.7 km/h 46.7 km/h 91 % 0 mm
21:12 -5.6 °C -6.9 °C 1018.5 hPa NNW 14.3 km/h 46.7 km/h 90 % 0 mm
21:18 -5.6 °C -6.9 °C 1018.5 hPa NNE 9.5 km/h 46.7 km/h 90 % 0 mm
21:23 -5.6 °C -6.9 °C 1018.8 hPa North 15.6 km/h 46.7 km/h 90 % 0 mm
21:28 -5.6 °C -6.9 °C 1018.8 hPa NE 11.3 km/h 46.7 km/h 90 % 0 mm
21:33 -5.6 °C -7.1 °C 1018.8 hPa NNE 14.6 km/h 46.7 km/h 89 % 0 mm
21:34 -5.6 °C -7.1 °C 1018.8 hPa NNE 12.1 km/h 46.7 km/h 89 % 0 mm
21:39 -5.6 °C -7.1 °C 1018.8 hPa NNW 7.7 km/h 46.7 km/h 89 % 0 mm
21:44 -5.6 °C -7.1 °C 1018.8 hPa North 11.6 km/h 46.7 km/h 89 % 0 mm
21:49 -5.6 °C -7.1 °C 1018.8 hPa NNW 12.9 km/h 46.7 km/h 89 % 0 mm
21:54 -5.6 °C -7.1 °C 1019.2 hPa NNW 11.9 km/h 46.7 km/h 89 % 0 mm
21:59 -5.6 °C -7.1 °C 1018.8 hPa North 15.4 km/h 46.7 km/h 89 % 0 mm
22:04 -5.6 °C -7.3 °C 1019.2 hPa NNW 7.9 km/h 46.7 km/h 88 % 0 mm
22:09 -5.6 °C -7.3 °C 1019.2 hPa North 10.9 km/h 46.7 km/h 88 % 0 mm
22:15 -5.6 °C -7.3 °C 1019.2 hPa NW 10.6 km/h 46.7 km/h 88 % 0 mm
22:20 -5.7 °C -7.3 °C 1019.2 hPa North 8 km/h 46.7 km/h 88 % 0 mm
22:25 -5.7 °C -7.3 °C 1019.2 hPa NNW 11.4 km/h 46.7 km/h 88 % 0 mm
22:30 -5.7 °C -7.5 °C 1019.2 hPa NE 12.2 km/h 46.7 km/h 87 % 0 mm
22:35 -5.7 °C -7.6 °C 1019.2 hPa NNW 11.3 km/h 46.7 km/h 87 % 0 mm
22:40 -5.7 °C -7.6 °C 1019.5 hPa NNE 12.6 km/h 46.7 km/h 87 % 0 mm
22:45 -5.7 °C -7.6 °C 1019.5 hPa NNW 10.1 km/h 46.7 km/h 87 % 0 mm
22:50 -5.8 °C -7.7 °C 1019.5 hPa NW 5.3 km/h 46.7 km/h 86 % 0 mm
22:55 -5.8 °C -7.7 °C 1019.5 hPa NE 13.2 km/h 46.7 km/h 86 % 0 mm
23:00 -5.8 °C -7.8 °C 1019.5 hPa North 8 km/h 46.7 km/h 86 % 0 mm
23:05 -5.8 °C -7.8 °C 1019.5 hPa NNW 8.5 km/h 46.7 km/h 86 % 0 mm
23:10 -5.9 °C -7.8 °C 1019.5 hPa North 9.3 km/h 46.7 km/h 86 % 0 mm
23:15 -5.9 °C -8.1 °C 1019.5 hPa North 7.1 km/h 46.7 km/h 85 % 0 mm
23:20 -5.9 °C -8.1 °C 1019.5 hPa NNW 7.2 km/h 46.7 km/h 85 % 0 mm
23:25 -5.9 °C -8.2 °C 1019.5 hPa NNW 11.7 km/h 46.7 km/h 84 % 0 mm
23:30 -6 °C -7.9 °C 1019.9 hPa NNW 9.5 km/h 46.7 km/h 86 % 0 mm
23:36 -6 °C -8.4 °C 1019.5 hPa North 13.7 km/h 46.7 km/h 83 % 0 mm
23:41 -6 °C -8.3 °C 1019.5 hPa NNW 10.3 km/h 46.7 km/h 84 % 0 mm
23:46 -6.1 °C -8.3 °C 1019.9 hPa WNW 8.4 km/h 46.7 km/h 84 % 0 mm
23:51 -6.1 °C -8.2 °C 1019.9 hPa NW 6.6 km/h 46.7 km/h 85 % 0 mm
23:56 -6.1 °C -8.3 °C 1019.9 hPa North 9.2 km/h 46.7 km/h 84 % 0 mm
23:58 -6.1 °C -8.3 °C 1019.9 hPa NNW 8.7 km/h 46.7 km/h 84 % 0 mm
Crab Meadow Weather
Compliments of Weather Underground - 3 mb

Script developed by  Jim McMurry - jmcmurry@mwt.net Adapted for the template by  Wim van der Kuil - Leuven-Template.eu

Weather Terms: Wind Chill Advisory - Dangerous wind chills of -20°F to -30°F.